Regional Weather Roundup
Issued by NWS Pendleton, OR

Home | Current Version | Previous Version | Text Only | Print | Product List | Glossary On
Versions: 1 2 3 4 5 6 7 8 9 10 11 12 13 14 15 16 17 18 19 20 21 22 23 24 25 26 27 28 29 30 31 32 33 34 35 36 37 38 39 40 41 42 43 44 45 46 47 48 49 50
000
ASUS46 KPDT 261410
RWRPDT
PENDLETON REGIONAL WEATHER ROUNDUP
NATIONAL WEATHER SERVICE PENDLETON OREGON
600 AM PST WED NOV 26 2014

NOTE: FAIR INDICATES FEW OR NO CLOUDS BELOW 12,000 FEET WITH NO
SIGNIFICANT WEATHER AND/OR OBSTRUCTIONS TO VISIBILITY.

# INDICATES UNOFFICIAL STATION AND DATA

WAZ520-261510-
EAST SLOPES OF WASHINGTON CASCADES

CITY            SKY/WX      TMP DP  RH  WIND    PRES   REMARKS
#BULLFROG 2SW   N/A         49  46  89  NW5     27.69F
#BUMPING DAM    N/A         41  N/A N/A NE1     N/A
#CLE ELUM HS    N/A         51  45  80  NW6     30.05S
#CLE ELUM 2NW   N/A         50  45  83  SW1     N/A
#CLE ELUM LAKE  N/A         N/A N/A N/A SW2     30.06F
#CLIFFDEL 2NW   N/A         42  38  86  CALM    N/A
#GLENWOOD       N/A         52  48  86  S3      30.14F
#MANASTASH CYN  N/A         32  29  89  CALM    30.07F
#NELSON         N/A         50  47  89  CALM    30.12F
#NELSON 3SW     N/A         50  43  77  CALM    30.32F
#NILE           N/A         33  32  96  CALM    29.42F
#PEOH POINT     N/A         43  43  100 W3      N/A
#RONALD 2NW     N/A         48  45  89  CALM    29.96S
#SNOWDEN        N/A         50  44  80  NW3     N/A
#SOUTH BLEWITT  N/A         38  37  96  CALM    N/A
#TEANAWAY 4NE   N/A         38  38  100 NE1     N/A
#TROUT LAKE HS  N/A         51  48  89  CALM    N/A
#TROUT LAKE 1NE N/A         49  46  89  CALM    30.17S
$$

WAZ521-261510-
SIMCOE HIGHLANDS

CITY            SKY/WX      TMP DP  RH  WIND    PRES   REMARKS
#BICKLETON HS   N/A         48  41  77  W20G31  30.27R WCI 41
#SATUS PASS DOT N/A         48  44  86  CALM    N/A
#CENTERVILLE 4W N/A         52  48  86  NW8     29.93F
#CENTERVILLE 1SWN/A         51  47  86  W7      30.16S
#GOLDENDALE     N/A         53  48  83  S6      N/A
#GOLDENDALE 1NE N/A         53  46  77  S3      N/A
#GOLDENDALE 1S  N/A         51  48  89  CALM    30.16S
#GOLDENDALE 5WNWN/A         53  48  83  SW3     30.15F
#GOODNOE HILLS  N/A         51  46  83  NW12    N/A
#LYLE 6NE       N/A         53  49  86  S5      30.15F
$$

WAZ026-261510-
KITTITAS VALLEY

CITY            SKY/WX      TMP DP  RH  WIND    PRES   REMARKS
ELLENSBURG AP   FOG         38  35  89  N3      30.13F VSB 1/4
#ELLENSBURG CWU N/A         36  35  96  NW1     30.13F
#ELLENSBURG 3NE N/A         36  35  96  CALM    30.14F
#ELLENSBURG     N/A         40  40  100 CALM    N/A
#ELLENSBURG 1E  N/A         36  34  92  CALM    N/A
#KITTITAS 4N    N/A         37  33  85  CALM    30.16F
#KITTITAS 3S    N/A         35  34  96  CALM    30.17F
#THORP 6N       N/A         34  33  96  E1      30.19R
$$

WAZ027-261510-
YAKIMA VALLEY

CITY            SKY/WX      TMP DP  RH  WIND    PRES   REMARKS
SUNNYSIDE AP    CLOUDY      28  28  100 CALM    30.16F FOG
YAKIMA AIRPORT  CLOUDY      41  38  89  W3      30.16F FOG
YAKIMA-VAGABOND FOG         38  37  96  VRB1    30.16F VSB 1/2
#DONALD 2NE     N/A         31  30  96  CALM    28.99F
#GRANDVIEW      N/A         31  29  92  CALM    30.19S
#MABTON         N/A         32  31  96  CALM    30.16F
#NACHES 2SW     N/A         39  38  96  CALM    30.14F
#TERRACE HTS    N/A         37  36  96  CALM    30.15F
#TOPPENISH      N/A         33  32  96  CALM    30.10S
#WAPATO 4NE     N/A         31  30  96  CALM    28.99F
#W YAKIMA       N/A         40  38  92  CALM    30.18F
#WHITE SWAN 5E  N/A         32  31  96  CALM    30.19F
#WILEY CITY 3W  N/A         36  33  89  CALM    30.17S
$$

WAZ028-261510-
LOWER COLUMBIA BASIN...WASHINGTON

CITY            SKY/WX      TMP DP  RH  WIND    PRES   REMARKS
PASCO           N/A         39  39  100 N3      30.19F FOG
PROSSER AWOS    N/A         36  36  100 S2      30.20S
RICHLAND AWOS   CLOUDY      39  39  100 CALM    30.20F
#BASIN CITY 5SW N/A         39  38  96  CALM    30.19S
#CONNELL 5N     N/A         38  37  96  CALM    30.19F
#CONNELL 5NW    N/A         38  37  96  CALM    30.16F
#ELTOPIA 6NW    N/A         38  37  96  NE1     29.13F
#KAHLOTUS       N/A         39  38  96  CALM    30.19F
#KENNEWICK      N/A         49  46  89  NW5     27.69F
#KENNEWICK 3S   N/A         38  37  96  CALM    30.20F
#PATERSON       N/A         50  44  80  NE2     30.17R
#PROSSER DOT    N/A         38  38  100 NE7     N/A
#PROSSER        N/A         37  35  92  W3      30.17F
#SAGEMOOR 2W    N/A         39  38  96  CALM    30.05S
#TOUCHET 2S     N/A         58  46  64  SW13G26 30.15F
#WEST PASCO     N/A         40  37  89  CALM    30.21F
$$

WAZ029-261510-
FOOTHILLS OF THE BLUES...WASHINGTON

CITY            SKY/WX      TMP DP  RH  WIND    PRES   REMARKS
WALLA WALLA AP  CLOUDY      55  43  64  S14     30.19F
#COLLEGE PLACE  N/A         53  41  64  SE6     30.20F
#DAYTON SCHOOL  N/A         56  40  55  S13G33  30.18S
#DELANEY DOT    N/A         55  43  64  S12     N/A
#LOWDEN 2SE     N/A         56  46  69  W7      30.14F
#PLEASANT VIEW 1N/A         45  43  93  S15     30.22S WCI 38
#PRESCOTT       N/A         50  46  86  S3      30.17F
#SUDBURY        N/A         48  N/A N/A CALM    N/A
#WHITMAN COLLEGEN/A         56  45  66  SE3     30.25S
#WAITSBURG 5S   N/A         52  44  74  S18G25  30.29S
#WAITSBURG 8N   N/A         49  32  52  S3      30.15R
#WALLA WALLA 5E N/A         56  43  62  S6      N/A
#WALLA WALLA U  N/A         57  45  64  SE7     30.19F
#WHITMAN MISSIONN/A         58  45  62  S7      30.21S
$$

WAZ030-261510-
BLUE MOUNTAINS...WASHINGTON

CITY            SKY/WX      TMP DP  RH  WIND    PRES   REMARKS
#DIXIE 5SE      N/A         50  38  63  SW18G26 30.14F
$$

ORZ009-041-WAZ024-261510-
COLUMBIA RIVER GORGE

CITY            SKY/WX      TMP DP  RH  WIND    PRES   REMARKS
HOOD RIVER AP   CLOUDY      57  50  77  NW9     30.20S
THE DALLES AP   CLOUDY      54  45  71  E6      30.19F
#ARLINGTON AIRPON/A         54  45  71  W12     29.98S
#CELILO DOT     N/A         56  43  62  SW2     N/A
#MARYHILL       N/A         55  48  77  CALM    N/A
#MARYHILL 2W    N/A         55  49  80  NW2     N/A
#MOSIER 1S      N/A         53  45  74  SW6     30.21S
#MURDOCK        N/A         55  50  83  SE2     30.20F
#RUFUS DOT      N/A         56  46  69  S13     N/A

$$

ORZ510-261510-
NORTH CENTRAL OREGON

CITY            SKY/WX      TMP DP  RH  WIND    PRES   REMARKS
#CHENOWITH 1W   N/A         51  48  89  NW7     N/A
#COW CYN RST AREN/A         45  38  76  SW3     N/A
#DUFUR 9E       N/A         51  44  77  SW14    30.22F
#GRASS VALLEY   N/A         41  40  96  S2      N/A
#GRASS VALLEY 1SN/A         42  39  89  CALM    30.25F
#KENT DOT       N/A         44  35  70  S9      N/A
#MAUPIN SCHOOL  N/A         53  42  66  SW2     29.10F
#MORO SCHOOL    N/A         44  42  93  W1      30.23S
#SHANIKO 5WSW   N/A         44  34  68  S10     N/A
#SHANIKO 4NW    N/A         44  38  79  S7      30.23F
#TYGH VALLEY 2NEN/A         50  44  80  W3      30.19F
#WAPANITIA AIRPON/A         45  40  82  CALM    30.21F
#WASCO DOT      N/A         47  41  79  SW2     N/A
#WASCO 5NE      N/A         45  40  82  S2      30.19S
$$

ORZ511-261510-
CENTRAL OREGON

CITY            SKY/WX      TMP DP  RH  WIND    PRES   REMARKS
BEND AIRPORT    PTCLDY      36  32  85  CALM    30.28S
MADRAS AIRPORT  PTCLDY      43  37  79  S10     30.27S
PRINEVILLE AP   MOCLDY      30  30  100 CALM    30.28F
REDMOND AIRPORT PTCLDY      31  31  100 CALM    30.26F
#BEND 1SW       N/A         36  35  96  SW3     N/A
#BEND-AWBREY    N/A         40  37  89  N12     30.24S WCI 33
#BEND-KIM LN    N/A         41  37  86  SW8     30.24S
#CROOKED RVR RANN/A         36  34  92  W1      30.24F
#CULVER         N/A         42  36  79  CALM    30.22S
#LAKE BILLY CHINN/A         42  29  60  SE12    30.30F WCI 35
#POWELL BUTTE 3EN/A         38  33  82  E2      N/A
#POWELL BUTTE   N/A         40  34  79  SW2     29.88S
#PRINEVILLE 3N  N/A         33  32  96  CALM    30.25S
#WARM SPRINGS   N/A         38  35  89  CALM    30.22F


ORZ509-261510-
EAST SLOPES OF OREGON CASCADES

CITY            SKY/WX      TMP DP  RH  WIND    PRES   REMARKS
#BLUE BOX PASS  N/A         43  -7  11  CALM    N/A
#BLACK BUTTE RNCN/A         34  33  96  CALM    30.28S
#CAMP SHERMAN   N/A         31  29  92  CALM    30.34S
#LA PINE DOT    N/A         26  25  96  CALM    N/A
#LA PINE 4NW    N/A         27  24  88  CALM    30.39R
#LAVA BUTTE DOT N/A         33  31  92  CALM    N/A
#MT BACHELOR-MIDN/A         35  29  78  SW22G35 N/A    WCI 23
#SISTERS AIRPOR N/A         27  27  100 CALM    29.91S
#SISTERS ODOT   N/A         28  N/A N/A CALM    N/A
#SISTERS 3N     N/A         27  23  85  CALM    30.28S
#SUNRIVER       N/A         31  30  96  S2      30.20F
#SUNRIVER AP    N/A         53  52  96  CALM    30.20F
#SUTTLE LK DOT  N/A         33  33  100 W48G76  N/A    WCI 16
#TUMALO 3W      N/A         41  36  82  SW3     30.12F
#WANOGA BUTTE D N/A         39  33  79  SW6     N/A

$$

ORZ044-261510-
LOWER COLUMBIA BASIN...OREGON

CITY            SKY/WX      TMP DP  RH  WIND    PRES   REMARKS
HERMISTON       CLOUDY      56  42  59  SW12    30.17F
#BOARDMAN 3W    N/A         50  46  86  SW3     29.91S
#BOARDMAN 8SW   N/A         54  45  71  CALM    30.17S
#ECHO 8SW       N/A         58  43  57  SW9     30.15S
#IONE SCHOOL    N/A         56  41  57  S14G26  30.18S
#IRRIGON 4NW    N/A         45  44  96  NE6     N/A
#UMATILLA SCHOOLN/A         41  41  100 CALM    30.18F
#UMATILLA       N/A         47  40  76  CALM    30.16F
$$

ORZ507-261510-
NORTHERN FOOTHILLS OF THE BLUES

CITY            SKY/WX      TMP DP  RH  WIND    PRES   REMARKS
PENDLETON AIRPT CLOUDY      54  40  59  SW14    30.20F
#ADAMS 3WNW     N/A         49  42  77  SW9     30.18F
#ATHENA         N/A         51  43  74  SW2     30.21F
#CAYUSE         N/A         57  43  59  SW14    30.18F
#HELIX SCHOOL   N/A         47  41  79  S7      30.20F
#HELIX 3N       N/A         47  41  79  S10     30.15F
#HOLDMAN 5SE    N/A         52  43  71  CALM    30.19F
#HOLDMAN 6E     N/A         50  42  74  VRB8    30.01S
#M-F FERNDALE   N/A         56  42  59  CALM    30.18F
#M-F GROVE ELEM N/A         56  41  57  S9      30.16F
#M-FREEWATER 5SEN/A         58  43  57  SW8     30.19F
#PENDLETON DNTN N/A         54  37  52  W3      29.00S
#PDT AQUATIC CTRN/A         57  41  55  SW7     30.17F
#PENDLETON 5NE  N/A         52  43  71  CALM    30.16F
#PDT SUNRIDGE   N/A         52  42  69  S5      30.22S
#PENDLETON 7NW  N/A         53  42  66  SW2     27.06F
#TUTUILLA       N/A         53  42  66  S8      30.21S
#UMAPINE 2E     N/A         57  45  64  SW1     30.16S
#WESTON SCHOOL  N/A         54  40  59  SW7     30.16F

$$

ORZ508-261510-
SOUTHERN FOOTHILLS OF THE BLUES

CITY            SKY/WX      TMP DP  RH  WIND    PRES   REMARKS
LEXINGTON       CLOUDY      55  41  59  S13     30.22S
#AJAX           N/A         50  36  58  S6      30.13F
#CONDON SCHOOL  N/A         47  41  79  CALM    30.17S
#CONDON 5W      N/A         45  37  73  SW12    30.20F WCI 39
#FOSSIL SCHOOL  N/A         44  38  79  SE2     30.20F
#HEPPNER EOC    N/A         53  40  61  SE7     30.15S
#HEPPNER 4NE    N/A         50  39  66  S5      30.19S
#LEXINGTON 2SE  N/A         56  42  59  S7      30.17S
#MIKKALO        N/A         53  40  61  SW8     30.19S
#OLEX 4N        N/A         55  44  66  SW15    30.17F
#RUGGS 5NE      N/A         47  38  71  N2      30.40R
#RUGGS 2SW      N/A         50  39  66  S1      30.22S

$$

ORZ502-503-261510-
BLUE MOUNTAINS

CITY            SKY/WX      TMP DP  RH  WIND    PRES   REMARKS
MEACHAM         CLOUDY      42  38  86  CALM    30.24S
#BATTLE MTN DOT N/A         40  40  100 SW2     N/A
#HARDMAN 10S    N/A         40  36  85  CALM    30.36F
#HEPPNER 15SE   N/A         42  38  86  CALM    30.16F
#LADD CYN SMT   N/A         39  32  76  SE8     N/A
#LADD CREEK ODOTN/A         40  34  79  SW2     N/A
#LONG CREEK HS  N/A         39  38  96  E1      30.22F
#PIKES PEAK     N/A         48  39  71  SW24G36 27.99S WCI 40
#TOLLGATE       N/A         39  38  96  SW7     30.11F
#TROY SCHOOL    N/A         49  46  89  W2      30.06S
#UKIAH          N/A         37  35  92  CALM    30.28F
#WESTON 4E      N/A         48  40  74  SW10    30.16S
$$

ORZ505-261510-
JOHN DAY BASIN

CITY            SKY/WX      TMP DP  RH  WIND    PRES   REMARKS
JOHN DAY        CLOUDY      41  36  82  E10     30.29F
#DAYVILLE SCHOOLN/A         39  34  82  SE2     30.25S
#MONUMENT HS    N/A         37  34  89  CALM    30.27S
#MT. VERNON 5SE N/A         41  36  82  CALM    30.24F
#WINLOCK        N/A         40  36  85  CALM    30.32S
$$

ORZ506-261510-
OCHOCO AND JOHN DAY HIGHLANDS

CITY            SKY/WX      TMP DP  RH  WIND    PRES   REMARKS
#BUCK CREEK DOT N/A         43  42  96  E6      N/A
#HORSE RIDGE DO N/A         29  28  96  CALM    N/A
#KEYES SMT DOT  N/A         36  32  85  E6      N/A
#PAULINA SCHOOL N/A         27  24  88  CALM    30.28S
#PINE MTN OBS   N/A         41  33  73  S7      N/A
#PRAIRIE CITY   N/A         29  26  88  CALM    30.49S
#SENECA         N/A         29  N/A N/A E1      N/A
#SENECA 9NW     N/A         29  28  96  CALM    30.35S
$$

ORZ049-261510-
GRANDE RONDE VALLEY

CITY            SKY/WX      TMP DP  RH  WIND    PRES   REMARKS
LA GRANDE       MOCLDY      46  34  63  CALM    30.24F
#COVE           N/A         46  40  79  CALM    30.03S
#COVE SCHOOL    N/A         47  42  83  E1      30.21F
#COVE 6NW       N/A         46  39  76  CALM    30.29F
#ELGIN 3N       N/A         51  38  61  S5      29.94S
#ELGIN 1E       N/A         51  41  68  CALM    N/A
#IMBLER SCHOOL  N/A         48  40  74  SW5     30.19F
#ISLAND CITY 4N N/A         53  52  96  CALM    30.19F
#LADD CYN DOT   N/A         43  37  79  SE12    N/A    WCI 37
#UNION 1S       N/A         46  39  76  CALM    30.17F
$$

ORZ050-261510-
WALLOWA COUNTY

CITY            SKY/WX      TMP DP  RH  WIND    PRES   REMARKS
#ENTERPRISE AP  N/A         42  35  76  CALM    30.15S
#ENTERPRISE HS  N/A         40  36  85  CALM    30.22S
#IMNAHA SCHOOL  N/A         49  41  74  SW6     30.22S
#IMNAHA 10S     N/A         43  38  82  SW5     30.22S
#JOSEPH 3N      N/A         40  34  79  E6      30.22F
#JOSEPH 3W      N/A         42  35  76  CALM    30.04S
#LOSTINE        N/A         46  37  71  SE1     30.00R
#MT HOWARD 8000 N/A         35  N/A N/A W16G26  30.24F WCI 25
#PROMISE 1S     N/A         47  40  76  E6      30.28S
#SHEEP RDG 7000 N/A         36  29  75  CALM    30.24R
#WALLOWA SCHOOL N/A         51  39  63  CALM    31.13R



$$



USA.gov is the U.S. government's official web portal to all federal, state and local government web resources and services.